Regional Weather Roundup
Issued by NWS

Home | Current Version | Previous Version | Text Only | Print | Product List | Glossary On
Versions: 1 2 3 4 5 6 7 8 9 10 11 12 13 14 15 16 17 18 19 20 21 22 23 24 25 26 27
000
ASUS45 KTFX 232010
RWRMT
MONTANA REGIONAL WEATHER ROUNDUP
NATIONAL WEATHER SERVICE GREAT FALLS MT
200 PM MDT WED MAY 23 2018

NOTE: "FAIR" INDICATES FEW OR NO CLOUDS BELOW 12000 FEET WITH NO
SIGNIFICANT WEATHER AND/OR OBSTRUCTIONS TO VISIBILITY.

MTZ001>007-043-232100-
WEST OF THE DIVIDE

CITY           SKY/WX    TMP DP  RH WIND       PRES   REMARKS
KALISPELL      FAIR      78  44  29 CALM      29.81F
MISSOULA       FAIR      72  51  47 VRB3      29.81F
BUTTE          CLOUDY    61  46  57 SE13      29.92F
MULLAN PASS    CLOUDY    59  41  51 VRB3      29.94F
ANACONDA         N/A     64  45  48 N6        29.89F
DEER LODGE       N/A     64  48  55 NW6       29.90F
HAMILTON         N/A     70  46  43 MISG      29.84F
RONAN            N/A     75  46  35 NW9       29.83F
$$

MTZ008-052>055-232100-
SOUTHWEST MONTANA

CITY           SKY/WX    TMP DP  RH WIND       PRES   REMARKS
BOZEMAN        LGT RAIN  57  52  83 NE3       29.92S
DILLON         FAIR      60  47  61 VRB3      29.92F
ENNIS          CLOUDY    54  50  87 S9        29.98S FOG
W YELLOWSTONE  LGT RAIN  45  45 100 SW8       30.00S
$$

MTZ009-010-012-014-046-048-049-054-232100-
EAST SLOPES AND CENTRAL MONTANA

CITY           SKY/WX    TMP DP  RH WIND       PRES   REMARKS
CUT BANK       PTSUNNY   72  41  32 E6        29.88F
GREAT FALLS    CLOUDY    64  52  64 SE9       29.90R
MALMSTROM AFB  PTSUNNY   62  53  70 S3        29.90F
HELENA         CLOUDY    62  51  67 E3        29.91R
AUGUSTA        PTSUNNY   63  48  59 E7        29.92F
BOWMANS CRNR   PTSUNNY   60  49  65 E8        29.90S
CHOTEAU          N/A     68  46  45 CALM      29.92F
POWER          PTSUNNY   65  49  58 CALM      29.89F
RAYNESFORD     LGT RAIN  59  51  75 E9        29.92F
ULM            CLOUDY    59  52  76 SE8       29.91S
WHITE SULPHUR    N/A     55  48  76 VRB3      29.92S
$$

MTZ011-013-016-021-045-047-050-051-232100-
NORTH CENTRAL MONTANA

CITY           SKY/WX    TMP DP  RH WIND       PRES   REMARKS
HAVRE          FAIR      76  50  40 SE13      29.84F
LEWISTOWN      CLOUDY    56  54  93 VRB6      29.91F
N BAR RANCH    CLOUDY    55  52  88 NE5G13    29.95R
CHINOOK          N/A     73  52  46 MISG      29.84F
DENTON         RAIN      58  55  90 S6        29.88F
GEYSER         LGT RAIN  56  54  91 S8        29.93S
GRASS RANGE    PTSUNNY   57  53  88 E6        29.88S
JUDITH GAP     PTSUNNY   54  51  89 N15       29.91F
ROY            LGT RAIN  56  55  95 N8        29.89F
STANFORD       RAIN      53  49  85 SE5       29.94F
WINIFRED       RAIN      57  56  94 NE5       29.91F
$$

MTZ017>020-022>027-061-062-232100-
NORTHEAST MONTANA

CITY           SKY/WX    TMP DP  RH WIND       PRES   REMARKS
GLASGOW        PTSUNNY   64  60  87 N13       29.85F
GLENDIVE       CLOUDY    71  62  73 CALM      29.85F
JORDAN           N/A     65  59  81 E8        29.85S
MALTA          PTSUNNY   64  59  82 S8        29.87S
SIDNEY         PTSUNNY   70  62  76 SE7       29.85F
WOLF POINT     CLOUDY    67  61  81 NE7       29.86F
PLENTYWOOD       N/A     64  64 100 CALM      29.89F
POPLAR           N/A     64  61  88 N9        29.87S
$$

MTZ028>42-056>058-232100-
SOUTHCENTRAL AND SOUTHEAST MONTANA

CITY           SKY/WX    TMP DP  RH WIND       PRES   REMARKS
BAKER          FAIR      75  57  53 S17       29.86F
BILLINGS       PTSUNNY   61  58  90 NE10      29.86F
LIVINGSTON     LGT RAIN  56  49  77 SW17      29.90F
MILES CITY     FAIR      72  59  63 E5        29.83F
HARLOWTON      CLOUDY    59  51  76 N10       29.89F
LAUREL           N/A     63  57  82 NE10      29.86F
$$

REGIONAL REPORTS...DAKOTAS

CITY           SKY/WX    TMP DP  RH WIND       PRES   REMARKS
WILLISTON      CLOUDY    71  59  65 S13G22    29.88R
MINOT          FAIR      82  58  43 SE15G22   29.89F
DICKINSON      CLOUDY    71  57  61 SE14      29.87F
BEACH          PTSUNNY   70  63  78 SE21G29   29.89F
CROSBY         RAIN      64  64 100 SE10G17   29.91R
TIOGA          CLOUDY    73  57  56 SE23G30   29.91S
WATFORD CITY   PTSUNNY   66  64  94 SE5       29.88F
BISMARCK       CLOUDY    77  61  57 SE15      29.89F
GRAND FORKS    PTSUNNY   83  60  45 S18G28    29.95F
FARGO          FAIR      77  61  57 S20G31    29.98R
BUFFALO SD       N/A     77  54  44 S7G18     29.81F
RAPID CITY     FAIR      75  61  61 SE14      29.90S
$$

REGIONAL REPORTS...WYOMING/IDAHO/WASHINGTON

CITY           SKY/WX    TMP DP  RH WIND       PRES   REMARKS
GILLETTE       FAIR      76  46  34 SW17G28   29.89F
SHERIDAN       FAIR      72  57  59 N9        29.85F
BUFFALO WY     FAIR      74  40  29 SW23G38   29.89F
CODY           FAIR      55  46  71 W10       29.94S
YELLOWSTONE LA   N/A     33  32  96 CALM      30.10R
IDAHO FALLS    PTSUNNY   60  52  74 E6        29.96F
SALMON         PTSUNNY   67  50  54 W13G20    29.86S
BOISE          FAIR      78  49  35 SW8G17    29.82F
SPOKANE        FAIR      80  39  23 NE5G16    29.76F
$$

REGIONAL REPORTS...ALBERTA

CITY           SKY/WX    TMP DP  RH WIND       PRES   REMARKS
CALGARY        MOSUNNY   77  37  24 S12G21    29.86F
CARDSTON         N/A     73  39  29 NE7         N/A
EDMONTON       MOSUNNY   82  39  21 S5        29.82F
FORT MCMURRAY  SUNNY     88  43  20 VRB5      29.78F
HIGH LEVEL     MOSUNNY   79  48  34 VRB6      29.76F
LETHBRIDGE     MOSUNNY   79  36  21 VRB5      29.85F
LLOYDMINSTER   MOSUNNY   81  43  26 VRB5G17   29.87F
MEDICINE HAT   MOSUNNY   82  37  20 SE7       29.81F
MILK RIVER       N/A     75  41  29 SE5         N/A
PEACE RIVER    MOSUNNY   88  43  20 S16G22    29.73F
PINCHER CREEK    N/A     73  43  33 NE10      29.89
$$

REGIONAL REPORTS...SASKATCHEWAN

CITY           SKY/WX    TMP DP  RH WIND       PRES   REMARKS
CORONACH         N/A     66  57  72 SE16        N/A
CYPRESS HILLS    N/A     70  37  30 E7          N/A
ESTEVAN        CLOUDY    72  57  60 S22G36    29.90S
PRINCE ALBERT  MOSUNNY   84  48  28 S8        29.91F
REGINA         CLOUDY    81  54  39 E13G21    29.86F
ROCKGLEN         N/A     64  57  77 S7          N/A
SASKATOON      MOSUNNY   82  48  30 E10       29.88F
SWIFT CURRENT  PTSUNNY   77  46  33 E12G18    29.86F
VAL MARIE        N/A     73  52  46 S20G25      N/A
$$




USA.gov is the U.S. government's official web portal to all federal, state and local government web resources and services.